EW2693 Weather Reports


Display with metric or nautical units.
time (UTC)temp
F
wind
direction
speed
MPH
gust
MPH
rain 1hr
in
rain 24hr
in
rain mn
in
humidity
%
barometer
mb
20260906064002 77 295 0.0 3.0 0.00 0.00 0.00 66 1021.0
20260906063002 77 295 0.0 3.0 0.00 0.00 0.00 66 1021.0
20260906062003 76 294 0.0 2.0 0.00 0.00 0.00 66 1021.0
20260906060959 75 294 0.0 1.0 0.00 0.00 0.00 67 1020.9
20260906060002 75 294 0.0 1.0 0.00 0.00 0.00 66 1020.8
20260906054959 75 294 0.0 1.0 0.00 0.00 0.00 66 1020.6
20260906054000 75 294 0.0 1.0 0.00 0.00 0.00 66 1020.4
20260906053000 74 294 0.0 1.0 0.00 0.00 0.00 66 1020.3
20260906052003 74 294 0.0 0.0 0.00 0.00 0.00 66 1020.4
20260906050004 74 294 0.0 0.0 0.00 0.00 0.00 65 1020.2
20260906044959 74 294 0.0 0.0 0.00 0.00 0.00 66 1020.2
20260906044000 74 294 0.0 2.0 0.00 0.00 0.00 66 1020.1
20260906042959 74 293 0.0 1.0 0.00 0.00 0.00 66 1020.0
20260906041959 74 294 0.0 2.0 0.00 0.00 0.00 66 1019.9
20260906040008 73 294 0.0 1.0 0.00 0.00 0.00 67 1019.8
20260906034959 73 294 0.0 1.0 0.00 0.00 0.00 67 1019.6
20260906033959 73 294 0.0 1.0 0.00 0.00 0.00 67 1019.7
20260906033000 73 294 1.0 3.0 0.00 0.00 0.00 66 1019.6
20260906031959 73 180 0.0 1.0 0.00 0.00 0.00 67 1019.4
20260906031000 74 180 0.0 2.0 0.00 0.00 0.00 67 1019.3
20260906030005 74 180 0.0 1.0 0.00 0.00 0.00 67 1019.3
20260906024959 74 180 0.0 2.0 0.00 0.00 0.00 67 1019.3
20260906023000 74 180 0.0 2.0 0.00 0.00 0.00 66 1019.4
20260906021959 74 180 0.0 1.0 0.00 0.00 0.00 65 1018.9
20260906020959 74 180 0.0 1.0 0.00 0.00 0.00 65 1018.7
20260906020005 74 180 0.0 2.0 0.00 0.00 0.00 65 1018.7
20260906015000 74 180 0.0 1.0 0.00 0.00 0.00 64 1018.7
20260906013959 74 180 0.0 1.0 0.00 0.00 0.00 64 1018.7
20260906013000 74 180 0.0 2.0 0.00 0.00 0.00 64 1018.7
20260906011959 74 180 0.0 1.0 0.00 0.00 0.00 64 1018.6
20260906011000 74 180 0.0 0.0 0.00 0.00 0.00 64 1018.6
20260906010004 74 180 0.0 0.0 0.00 0.00 0.00 64 1018.6
20260906005001 75 180 0.0 0.0 0.00 0.00 0.00 64 1018.6
20260906003958 75 180 0.0 0.0 0.00 0.00 0.00 65 1018.6
20260906002958 75 180 0.0 2.0 0.00 0.00 0.00 64 1018.6
20260906002001 75 180 0.0 2.0 0.00 0.00 0.00 64 1018.5
20260906000959 75 180 0.0 2.0 0.00 0.00 0.00 63 1018.6
20260906000001 76 180 0.0 0.0 0.00 0.00 0.00 62 1018.6
20260905234959 76 180 0.0 1.0 0.00 0.00 0.00 61 1018.5
20260905233958 76 180 0.0 1.0 0.00 0.00 0.00 61 1018.4
20260905233000 76 180 0.0 0.0 0.00 0.00 0.00 63 1018.5
20260905230959 77 180 0.0 0.0 0.00 0.00 0.00 62 1018.5
20260905230004 77 180 0.0 0.0 0.00 0.00 0.00 60 1018.4
20260905225002 77 180 0.0 0.0 0.00 0.00 0.00 62 1018.4
20260905223001 77 180 0.0 0.0 0.00 0.00 0.00 62 1018.4
20260905222001 77 180 0.0 0.0 0.00 0.00 0.00 61 1018.4
20260905221002 78 180 1.0 2.0 0.00 0.00 0.00 60 1018.3
20260905220009 79 180 0.0 1.0 0.00 0.00 0.00 59 1018.3
20260905215003 79 180 0.0 0.0 0.00 0.00 0.00 57 1018.1
20260905213003 79 180 0.0 1.0 0.00 0.00 0.00 57 1018.1
20260905212004 79 180 0.0 1.0 0.00 0.00 0.00 57 1018.0
20260905211001 80 180 0.0 2.0 0.00 0.00 0.00 58 1018.0
20260905210004 80 180 0.0 0.0 0.00 0.00 0.00 62 1017.9
20260905205001 81 180 0.0 0.0 0.00 0.00 0.00 63 1017.8
20260905204002 81 180 0.0 0.0 0.00 0.00 0.00 62 1017.9
20260905203004 81 180 0.0 0.0 0.00 0.00 0.00 61 1017.9
20260905202004 81 180 0.0 0.0 0.00 0.00 0.00 60 1017.9
20260905201002 82 180 0.0 0.0 0.00 0.00 0.00 59 1017.8
20260905200004 82 180 0.0 0.0 0.00 0.00 0.00 59 1017.7
20260905195002 83 180 0.0 0.0 0.00 0.00 0.00 58 1017.7
20260905193007 83 180 1.0 4.0 0.00 0.00 0.00 58 1017.6
20260905192006 83 180 1.0 2.0 0.00 0.00 0.00 58 1017.5
20260905191002 84 180 2.0 4.0 0.00 0.00 0.00 57 1017.3
20260905190004 84 180 1.0 3.0 0.00 0.00 0.00 56 1017.2
20260905185002 84 180 2.0 4.0 0.00 0.00 0.00 56 1017.1
20260905184001 84 180 1.0 3.0 0.00 0.00 0.00 58 1017.0
20260905183003 84 180 1.0 3.0 0.00 0.00 0.00 59 1017.0
20260905182004 84 132 1.0 3.0 0.00 0.00 0.00 60 1016.9
20260905181002 85 61 1.0 3.0 0.00 0.00 0.00 58 1016.8
20260905180004 85 61 1.0 3.0 0.00 0.00 0.00 57 1016.8
20260905175002 85 148 1.0 2.0 0.00 0.00 0.00 55 1016.7
20260905174001 86 148 0.0 3.0 0.00 0.00 0.00 52 1016.6
20260905173004 86 149 1.0 2.0 0.00 0.00 0.00 52 1016.6
20260905172004 86 152 1.0 5.0 0.00 0.00 0.00 52 1016.3
20260905171001 86 58 1.0 4.0 0.00 0.00 0.00 51 1016.2
20260905170002 86 14 1.0 5.0 0.00 0.00 0.00 51 1016.2
20260905165003 86 277 1.0 3.0 0.00 0.00 0.00 50 1016.1
20260905164000 86 18 2.0 5.0 0.00 0.00 0.00 48 1016.2
20260905162003 87 34 3.0 8.0 0.00 0.00 0.00 51 1016.1
20260905161002 87 27 2.0 6.0 0.00 0.00 0.00 45 1016.1
20260905160004 88 28 3.0 8.0 0.00 0.00 0.00 45 1016.1
20260905155001 88 162 2.0 8.0 0.00 0.00 0.00 41 1016.0
20260905154002 88 33 1.0 5.0 0.00 0.00 0.00 41 1015.9
20260905153001 88 29 3.0 6.0 0.00 0.00 0.00 42 1016.0
20260905152002 88 29 3.0 6.0 0.00 0.00 0.00 40 1016.0
20260905150007 88 220 2.0 8.0 0.00 0.00 0.00 48 1016.0
20260905145003 88 30 3.0 8.0 0.00 0.00 0.00 45 1015.9
20260905143004 89 15 3.0 9.0 0.00 0.00 0.00 45 1015.9
20260905142004 90 27 2.0 8.0 0.00 0.00 0.00 46 1016.0
20260905141001 90 15 3.0 8.0 0.00 0.00 0.00 42 1016.1
20260905140003 90 9 3.0 6.0 0.00 0.00 0.00 45 1016.3
20260905135000 90 130 3.0 6.0 0.00 0.00 0.00 46 1016.3
20260905134000 90 5 3.0 5.0 0.00 0.00 0.00 44 1016.5
20260905133004 91 17 2.0 5.0 0.00 0.00 0.00 40 1016.6
20260905132004 90 319 3.0 8.0 0.00 0.00 0.00 40 1016.6
20260905125000 91 299 3.0 6.0 0.00 0.00 0.00 37 1016.6
20260905124000 91 317 3.0 6.0 0.00 0.00 0.00 38 1016.7
20260905123002 90 22 3.0 6.0 0.00 0.00 0.00 39 1016.8
20260905121000 90 72 3.0 6.0 0.00 0.00 0.00 43 1016.9
20260905120003 90 19 2.0 5.0 0.00 0.00 0.00 42 1017.0
20260905115001 91 31 2.0 6.0 0.00 0.00 0.00 41 1017.1
20260905114000 90 226 2.0 8.0 0.00 0.00 0.00 45 1017.1
20260905113003 90 244 2.0 6.0 0.00 0.00 0.00 41 1017.2
20260905112004 89 22 3.0 6.0 0.00 0.00 0.00 40 1017.3
20260905111000 89 31 2.0 5.0 0.00 0.00 0.00 41 1017.0
20260905110004 89 25 3.0 6.0 0.00 0.00 0.00 44 1017.1
20260905105000 90 19 2.0 6.0 0.00 0.00 0.00 43 1017.3
20260905104003 90 30 1.0 8.0 0.00 0.00 0.00 38 1017.1
20260905103004 89 44 2.0 4.0 0.00 0.00 0.00 41 1017.3
20260905102000 90 13 1.0 5.0 0.00 0.00 0.00 40 1017.3
20260905101000 90 154 2.0 5.0 0.00 0.00 0.00 36 1017.5
20260905100003 89 159 1.0 8.0 0.00 0.00 0.00 36 1017.3
20260905095000 89 284 1.0 4.0 0.00 0.00 0.00 36 1017.4
20260905094002 89 58 2.0 9.0 0.00 0.00 0.00 33 1017.1
20260905093002 91 61 1.0 6.0 0.00 0.00 0.00 32 1017.3
20260905092000 90 73 1.0 3.0 0.00 0.00 0.00 35 1017.1
20260905091002 89 11 1.0 4.0 0.00 0.00 0.00 39 1017.1
20260905090004 88 174 1.0 4.0 0.00 0.00 0.00 42 1017.0
20260905085000 88 161 1.0 2.0 0.00 0.00 0.00 42 1016.9
20260905084000 87 69 1.0 3.0 0.00 0.00 0.00 42 1016.7
20260905083001 87 69 1.0 4.0 0.00 0.00 0.00 45 1016.8
20260905081002 86 159 0.0 2.0 0.00 0.00 0.00 43 1016.7
20260905074959 84 159 0.0 0.0 0.00 0.00 0.00 43 1016.3
20260905074000 83 159 0.0 0.0 0.00 0.00 0.00 44 1016.3
20260905073000 82 159 0.0 1.0 0.00 0.00 0.00 45 1016.2
20260905072000 81 159 0.0 2.0 0.00 0.00 0.00 48 1016.1
20260905071000 80 159 0.0 1.0 0.00 0.00 0.00 48 1016.3
20260905070006 79 159 1.0 3.0 0.00 0.00 0.00 49 1016.3